SCP
0 0 0 -0 -0 0 0 0 0 0 0 0 0 0 0 0 1 1 1 1 0 0 1 1 1 1 0 0 0 0 0 1 1 1 1 1 1 1 0 0 0 0 0 0
0 -0 0 0 0 0 0 0 0 0 0 0 0 1 1 0 0 0 0 1 1 0 0 0 0 0 0 0 1 0 0 0 1 1 1 1 2 1 1 1 1 1 0 0
0 0 0 0 0 0 0 0 0 0 0 0 0 0 0 0 0 0 0 0 0 1 1 0 0 0 0 0 0 0 0 0 0 0 0 0 0 1 1 1 1 1 1 1
0 0 0 0 0 0 0 0 0 0 0 1 1 0 0 0 0 0 0 0 0 0 0 0 0 0 0 0 0 0 0 0 0 0 0 0 0 0 0 1 1 1 0 0
0 0 0 0 0 0 0 1 0 1 1 1 1 0 0 0 0 0 0 0 0 0 0 0 0 0 0 0 0 0 0 0 0 0 0 0 0 0 0 0 0 0 0 0
0 0 0 0 0 0 0 0 0 1 1 1 0 1 0 0 0 0 0 0 0 0 0 0 0 0 0 0 0 0 0 0 0 0 0 0 0 0 0 0 0 0 0 0
0 0 -0 -0 -0 0 0 0 0 1 0 0 1 1 0 0 0 0 0 0 0 0 0 0 0 0 0 0 0 0 0 0 0 0 0 0 0 0 0 0 0 0 0 0
0 0 0 0 0 0 0 0 0 1 0 0 0 1 0 0 0 0 0 0 0 0 0 0 0 0 0 0 0 0 0 0 0 0 0 0 0 0 0 0 0 0 0 0
0 0 0 0 0 0 0 0 0 0 0 0 0 0 0 0 0 0 0 0 0 0 0 0 0 0 0 0 0 0 0 0 0 0 0 0 0 0 0 0 0 0 0 0
0 0 0 0 0 0 0 0 1 1 1 0 0 0 0 0 0 0 0 0 0 0 0 0 0 0 0 0 0 0 0 0 0 0 0 0 0 0 0 0 0 0 0 0
0 0 0 0 0 0 0 0 0 1 1 0 0 0 0 0 0 0 0 0 0 0 0 0 0 0 0 0 0 0 0 0 0 0 0 0 0 0 0 0 0 0 0 0
0 0 0 0 0 0 0 0 0 0 0 0 0 0 0 0 0 0 0 0 0 0 0 0 0 0 0 0 0 0 0 0 0 0 0 0 0 0 0 0 0 0 0 0
0 0 0 0 0 0 0 0 0 0 0 0 0 0 0 0 0 0 0 0 0 0 0 0 0 0 0 0 0 0 0 0 0 0 0 0 0 0 0 0 0 0 0 0
0 0 0 0 0 0 0 0 0 0 0 0 0 0 0 0 0 0 0 0 0 0 0 0 0 0 0 0 0 0 0 0 0 0 0 0 0 0 0 0 0 0 0 0
0 0 0 0 0 0 0 0 0 0 0 0 0 0 0 0 0 0 0 0 0 0 0 0 0 0 0 0 0 0 0 0 0 0 0 0 0 0 0 0 0 0 0 0
0 0 0 0 0 0 0 0 0 0 0 0 0 0 0 0 0 0 0 0 -0 0 0 -0 0 0 0 0 0 0 0 0 0 0 0 0 0 0 0 0 0 0 0 0
0 0 0 0 0 0 0 0 0 0 0 0 0 0 0 0 0 0 0 0 0 0 0 0 0 0 0 0 0 0 0 0 0 0 0 0 0 0 0 0 0 0 0 0
0 0 0 0 0 0 0 0 0 0 0 0 0 0 0 0 0 0 0 0 0 0 0 0 0 0 0 0 0 0 0 0 0 0 0 0 0 0 0 0 0 0 0 0
0 0 0 0 0 0 0 0 0 0 0 0 0 0 0 0 0 0 0 0 0 0 0 0 0 0 0 0 0 0 0 0 0 0 0 0 0 0 0 0 0 0 0 0
0 0 0 0 0 0 0 0 0 0 0 0 0 0 0 0 0 0 0 0 0 0 0 0 0 0 0 0 0 0 0 0 0 0 0 0 0 0 0 0 0 0 0 0
0 0 0 0 0 0 0 0 0 0 0 0 0 0 0 0 0 0 0 1 0 0 0 0 0 0 0 0 0 0 0 0 0 0 0 0 0 0 0 0 0 0 0 0
0 0 0 0 0 0 0 0 0 0 0 0 0 0 0 0 0 0 0 0 0 0 0 0 0 0 0 0 0 0 0 0 0 0 0 0 0 0 0 0 0 0 0 0
0 0 0 0 0 0 0 0 0 0 0 0 0 0 0 0 0 0 0 0 0 0 0 0 0 0 0 0 0 0 0 0 0 0 0 0 0 0 0 0 0 0 0 0
0 0 0 0 0 0 0 0 0 0 0 0 0 0 0 0 0 0 0 0 0 0 0 0 0 0 0 0 0 0 0 0 0 0 0 0 0 0 0 0 0 0 0 0
0 0 0 0 0 0 0 0 0 0 0 0 0 0 0 0 0 0 0 0 0 0 0 0 0 0 0 0 0 0 0 0 0 0 0 0 0 0 0 0 0 0 0 0
0 0 0 0 0 0 0 0 0 0 0 0 0 0 0 0 0 0 0 0 0 0 0 0 0 0 0 0 0 0 0 0 0 0 0 0 1 1 0 0 0 0 0 0
0 0 0 0 0 -0 0 0 0 0 0 0 0 0 0 0 0 0 0 0 0 0 0 0 0 0 0 0 0 0 0 0 0 0 0 0 0 0 0 0 0 0 0 0
Wind_Speed_500mb
25 19 37 39 42 40 35 35 33 28 15 33 39 38 37 32 25 25 21 30 41 42 45 48 46 45 44 45 45 34 54 42 37 40 45 38 40 35 29 29 25 22 22 21
28 20 29 29 21 16 35 33 34 37 20 25 23 41 46 35 31 25 21 20 29 29 36 38 37 51 50 45 51 52 33 32 51 47 42 45 43 37 33 28 29 25 22 23
34 24 27 30 24 22 29 32 32 25 14 13 43 21 29 34 31 26 25 26 27 22 25 32 35 35 37 34 29 27 22 24 27 39 43 45 40 32 31 28 20 20 26 34
18 16 20 9 20 14 18 20 8 6 22 9 32 31 29 24 24 24 21 25 24 32 34 31 40 33 39 40 36 32 25 21 21 25 24 28 37 36 37 26 21 21 27 30
25 32 9 38 13 5 12 12 17 19 11 27 30 31 21 20 21 24 22 23 26 26 33 39 48 49 42 30 29 25 23 21 24 24 23 21 33 37 24 24 21 20 28 18
20 26 14 12 50 46 23 16 16 33 13 23 12 5 11 19 28 27 24 19 26 27 29 36 43 42 40 33 24 24 28 31 31 30 27 27 22 30 31 28 28 28 22 18
16 17 15 19 24 49 19 10 21 20 14 15 3 21 34 34 29 28 26 26 25 25 25 30 33 30 31 25 28 31 36 36 32 25 20 16 18 26 31 29 26 26 23 20
15 8 16 22 5 5 11 14 18 21 21 16 14 17 34 36 30 29 32 33 31 35 39 32 29 28 36 34 31 27 26 26 31 28 20 24 23 23 22 22 22 22 18 10
16 7 8 18 21 16 17 14 16 13 19 18 14 22 29 31 33 40 44 43 40 40 38 34 28 23 24 24 23 23 25 25 23 20 22 23 20 20 20 20 11 11 12 10
3 15 9 6 12 15 19 21 16 8 6 14 19 28 36 36 46 41 35 34 36 33 31 30 22 14 16 16 17 16 17 18 16 17 20 21 16 13 13 11 11 11 9 8
14 14 10 8 7 10 13 15 15 11 9 14 25 27 35 39 45 41 43 43 37 30 27 25 19 17 16 16 17 15 16 17 17 16 17 28 29 25 31 30 26 18 17 18
4 10 8 9 3 2 6 9 10 8 9 13 26 33 34 40 39 42 43 37 29 27 22 19 17 15 16 17 22 16 14 14 16 13 13 13 18 19 15 20 24 22 18 11
5 6 2 3 3 2 1 2 5 9 11 17 28 35 37 47 53 47 38 32 29 29 19 16 15 13 15 11 12 15 14 15 12 15 14 13 12 12 12 13 13 12 11 8
12 10 12 14 13 6 8 5 6 7 10 16 27 33 32 43 40 31 27 28 26 21 14 8 9 10 10 11 11 13 9 18 11 11 11 14 14 12 12 10 7 9 9 7
14 13 14 7 9 11 9 12 14 13 13 20 24 27 47 43 32 34 33 30 23 16 14 12 12 11 11 9 11 9 10 6 5 8 10 13 13 14 13 14 14 11 4 2
15 12 12 14 16 15 17 16 21 19 19 19 25 40 37 31 34 36 38 38 36 26 20 16 17 20 26 23 20 19 23 24 17 12 14 14 13 13 13 13 13 13 11 9
10 11 12 14 15 16 16 18 18 23 21 24 23 34 36 37 32 33 37 35 31 23 19 22 19 18 18 20 22 16 17 27 29 21 19 17 15 13 14 15 15 14 14 13
10 9 9 11 10 12 15 15 17 23 22 19 24 26 32 34 34 33 32 33 31 25 25 27 24 20 19 24 25 21 21 22 30 23 22 21 19 21 21 20 19 17 16 14
13 9 9 8 8 10 9 9 11 16 18 24 25 26 25 27 31 30 33 36 33 28 27 28 27 26 25 27 29 26 25 25 25 26 26 26 28 23 23 23 22 21 19 16
15 12 12 11 9 12 11 10 13 15 18 20 20 22 23 24 23 27 31 35 34 30 29 36 35 35 29 25 27 30 30 31 32 31 31 31 29 31 30 31 27 25 22 20
20 16 15 15 16 14 14 17 15 14 13 11 12 11 13 11 14 17 22 28 29 33 31 35 42 38 39 35 36 35 40 40 39 39 37 37 37 36 33 33 32 32 29 27
24 21 19 18 16 15 14 14 14 13 10 8 10 9 9 11 12 14 17 18 19 23 30 31 41 48 46 45 46 49 44 48 53 47 46 44 41 40 41 40 38 36 33 30
27 23 23 22 19 16 16 15 14 12 13 12 11 12 15 20 8 12 15 24 19 24 22 29 33 39 38 40 46 53 48 48 54 61 65 68 56 50 45 44 43 41 39 36
30 26 25 25 20 15 17 16 13 15 11 11 12 11 12 17 18 19 21 26 29 32 27 27 25 29 36 42 46 52 58 55 58 58 52 60 75 69 59 52 50 46 42 42
32 28 27 28 22 20 18 21 18 14 15 16 13 16 14 12 15 16 13 14 22 24 24 28 33 36 41 45 45 46 49 49 48 60 62 63 57 69 76 71 64 58 56 48
36 34 31 29 25 28 30 32 19 22 19 15 15 13 13 11 12 10 10 14 11 12 7 15 20 29 32 34 37 41 44 51 51 50 53 60 66 67 63 62 80 89 67 55
35 35 33 33 28 29 25 25 21 19 17 20 17 13 14 13 13 14 13 12 8 4 1 9 14 15 14 27 36 44 39 44 51 44 41 50 59 63 61 60 52 71 75 67
Wind_Direction_500mb
292 258 280 281 208 219 226 252 265 237 270 163 174 160 156 155 157 156 133 171 184 184 184 181 192 200 215 214 227 246 229 224 221 229 211 215 206 206 212 216 222 212 225 227
282 185 267 275 247 248 216 234 254 269 244 79 101 130 139 142 154 170 150 162 171 170 172 186 192 205 206 215 220 231 241 240 235 234 220 214 209 199 189 203 208 210 213 218
267 255 202 251 252 231 249 242 239 253 44 177 139 144 140 140 164 162 159 174 179 171 172 190 189 189 196 206 199 222 223 213 207 214 207 195 186 178 174 177 180 204 208 215
278 2 267 95 37 329 286 1 353 353 276 69 97 122 136 145 159 158 147 138 170 189 195 180 189 187 184 186 185 186 184 194 197 206 199 197 192 166 156 156 166 190 216 228
289 191 350 333 63 356 317 19 358 297 15 79 98 118 108 140 152 160 145 148 175 180 179 183 170 174 168 165 174 184 192 197 185 194 199 205 215 215 195 214 219 227 241 226
244 298 196 204 299 323 299 168 335 358 45 103 164 179 139 147 135 129 134 147 167 177 181 185 178 182 183 191 195 199 205 208 213 209 212 204 193 191 196 197 203 215 232 232
277 308 84 172 169 307 261 26 7 345 104 137 241 352 133 142 132 136 154 154 151 159 164 172 176 187 197 206 193 186 188 174 173 176 170 167 171 191 207 208 208 213 212 218
188 94 302 7 84 12 345 329 359 338 117 138 114 134 127 134 136 150 145 140 140 145 134 127 132 154 152 154 151 155 169 166 162 153 141 155 164 186 194 191 196 193 172 168
340 56 76 41 71 51 12 20 359 328 75 125 162 150 148 141 143 136 132 127 129 131 128 118 115 113 116 123 127 140 145 143 148 152 146 137 144 136 146 131 116 144 152 164
301 138 115 54 67 43 31 24 13 6 82 146 161 153 152 146 139 137 136 129 127 126 124 123 128 129 139 160 164 175 158 160 146 144 138 109 112 127 138 158 171 170 181 194
260 147 149 152 67 30 38 34 36 55 80 128 161 158 161 150 151 149 145 141 134 124 120 124 127 133 147 154 145 151 157 157 153 152 149 176 173 177 187 186 168 177 175 200
304 67 126 105 127 26 46 48 54 78 112 111 154 160 155 160 153 147 146 144 134 122 111 109 111 118 126 143 145 147 145 146 156 161 146 153 191 208 198 198 206 217 228 249
304 184 249 142 206 206 76 99 78 94 128 135 145 162 166 152 146 137 135 131 136 134 120 116 107 117 131 142 135 139 146 166 163 156 172 162 148 156 178 180 189 197 196 194
226 225 237 225 227 217 216 191 145 140 142 147 155 184 193 170 153 153 148 152 149 128 121 98 136 134 134 149 151 137 141 159 146 174 179 177 170 168 153 137 134 161 169 164
213 223 269 158 236 245 249 225 210 198 172 156 168 170 156 159 166 169 164 154 154 169 195 213 201 197 185 178 162 153 137 145 160 176 191 187 177 171 172 173 168 179 169 163
208 214 224 229 238 237 246 237 234 220 187 181 171 173 172 178 180 181 182 177 185 192 185 215 206 208 205 196 195 187 181 185 168 208 221 189 182 182 192 189 185 182 175 182
211 218 230 239 237 234 235 242 237 232 202 193 191 180 188 182 189 192 194 197 198 200 208 206 215 219 211 207 199 194 202 210 208 200 208 208 193 201 210 207 200 196 219 218
220 257 261 254 251 240 237 231 232 228 222 214 196 195 190 197 203 202 197 195 197 204 209 209 209 216 211 204 197 192 197 203 201 202 219 215 203 208 209 213 212 206 221 245
212 222 217 220 224 222 210 216 207 201 200 204 202 204 206 205 202 204 199 196 202 204 209 210 211 210 209 207 198 197 209 212 217 211 217 220 216 211 219 219 219 218 219 239
197 191 191 188 183 180 171 172 157 159 172 187 196 203 207 214 213 201 198 205 208 217 215 213 224 216 218 222 213 209 216 216 219 221 219 221 223 221 221 224 221 226 230 236
191 185 183 180 174 171 179 181 183 180 182 192 211 210 223 232 224 220 216 219 222 226 217 223 224 211 211 217 233 230 214 229 229 227 226 229 226 228 228 227 232 230 229 236
195 192 189 183 175 176 177 181 181 180 196 210 229 239 237 233 233 239 235 236 248 236 221 228 232 229 228 239 229 233 235 233 228 232 230 229 235 232 232 230 231 231 233 235
200 200 198 198 200 192 197 209 209 220 226 233 238 244 250 258 264 257 250 252 231 236 237 244 245 239 241 241 230 234 238 238 235 234 237 236 228 234 239 238 235 232 232 235
202 202 204 204 204 213 212 218 229 216 228 231 240 243 261 266 259 252 250 259 264 257 246 236 249 244 242 246 247 241 239 239 240 238 234 234 230 238 230 234 236 232 234 236
204 205 204 209 208 220 225 212 219 223 220 232 236 270 276 257 245 251 252 251 280 278 268 267 266 263 258 250 249 251 258 254 250 249 247 243 241 239 240 233 231 237 229 244
205 210 216 214 221 226 214 200 221 219 214 230 236 260 257 244 251 265 260 256 271 289 322 293 280 272 268 259 259 258 257 255 258 254 252 252 250 252 255 253 243 237 250 241
212 218 219 204 216 224 214 211 213 205 230 253 254 250 241 240 241 252 255 255 197 186 353 18 17 355 295 260 253 249 255 254 256 257 252 252 248 255 258 253 252 247 227 236
Wind_Speed_850mb
25 19 37 39 42 40 35 35 33 28 15 33 39 38 37 32 25 25 21 30 41 42 45 48 46 45 44 45 45 34 54 42 37 40 45 38 40 35 29 29 25 22 22 21
28 20 29 29 21 16 35 33 34 37 20 25 23 41 46 35 31 25 21 20 29 29 36 38 37 51 50 45 51 52 33 32 51 47 42 45 43 37 33 28 29 25 22 23
34 24 27 30 24 22 29 32 32 25 14 13 43 21 29 34 31 26 25 26 27 22 25 32 35 35 37 34 29 27 22 24 27 39 43 45 40 32 31 28 20 20 26 34
18 16 20 9 20 14 18 20 8 6 22 9 32 31 29 24 24 24 21 25 24 32 34 31 40 33 39 40 36 32 25 21 21 25 24 28 37 36 37 26 21 21 27 30
25 32 9 38 13 5 12 12 17 19 11 27 30 31 21 20 21 24 22 23 26 26 33 39 48 49 42 30 29 25 23 21 24 24 23 21 33 37 24 24 21 20 28 18
20 26 14 12 50 46 23 16 16 33 13 23 12 5 11 19 28 27 24 19 26 27 29 36 43 42 40 33 24 24 28 31 31 30 27 27 22 30 31 28 28 28 22 18
16 17 15 19 24 49 19 10 21 20 14 15 3 21 34 34 29 28 26 26 25 25 25 30 33 30 31 25 28 31 36 36 32 25 20 16 18 26 31 29 26 26 23 20
15 8 16 22 5 5 11 14 18 21 21 16 14 17 34 36 30 29 32 33 31 35 39 32 29 28 36 34 31 27 26 26 31 28 20 24 23 23 22 22 22 22 18 10
16 7 8 18 21 16 17 14 16 13 19 18 14 22 29 31 33 40 44 43 40 40 38 34 28 23 24 24 23 23 25 25 23 20 22 23 20 20 20 20 11 11 12 10
3 15 9 6 12 15 19 21 16 8 6 14 19 28 36 36 46 41 35 34 36 33 31 30 22 14 16 16 17 16 17 18 16 17 20 21 16 13 13 11 11 11 9 8
14 14 10 8 7 10 13 15 15 11 9 14 25 27 35 39 45 41 43 43 37 30 27 25 19 17 16 16 17 15 16 17 17 16 17 28 29 25 31 30 26 18 17 18
4 10 8 9 3 2 6 9 10 8 9 13 26 33 34 40 39 42 43 37 29 27 22 19 17 15 16 17 22 16 14 14 16 13 13 13 18 19 15 20 24 22 18 11
5 6 2 3 3 2 1 2 5 9 11 17 28 35 37 47 53 47 38 32 29 29 19 16 15 13 15 11 12 15 14 15 12 15 14 13 12 12 12 13 13 12 11 8
12 10 12 14 13 6 8 5 6 7 10 16 27 33 32 43 40 31 27 28 26 21 14 8 9 10 10 11 11 13 9 18 11 11 11 14 14 12 12 10 7 9 9 7
14 13 14 7 9 11 9 12 14 13 13 20 24 27 47 43 32 34 33 30 23 16 14 12 12 11 11 9 11 9 10 6 5 8 10 13 13 14 13 14 14 11 4 2
15 12 12 14 16 15 17 16 21 19 19 19 25 40 37 31 34 36 38 38 36 26 20 16 17 20 26 23 20 19 23 24 17 12 14 14 13 13 13 13 13 13 11 9
10 11 12 14 15 16 16 18 18 23 21 24 23 34 36 37 32 33 37 35 31 23 19 22 19 18 18 20 22 16 17 27 29 21 19 17 15 13 14 15 15 14 14 13
10 9 9 11 10 12 15 15 17 23 22 19 24 26 32 34 34 33 32 33 31 25 25 27 24 20 19 24 25 21 21 22 30 23 22 21 19 21 21 20 19 17 16 14
13 9 9 8 8 10 9 9 11 16 18 24 25 26 25 27 31 30 33 36 33 28 27 28 27 26 25 27 29 26 25 25 25 26 26 26 28 23 23 23 22 21 19 16
15 12 12 11 9 12 11 10 13 15 18 20 20 22 23 24 23 27 31 35 34 30 29 36 35 35 29 25 27 30 30 31 32 31 31 31 29 31 30 31 27 25 22 20
20 16 15 15 16 14 14 17 15 14 13 11 12 11 13 11 14 17 22 28 29 33 31 35 42 38 39 35 36 35 40 40 39 39 37 37 37 36 33 33 32 32 29 27
24 21 19 18 16 15 14 14 14 13 10 8 10 9 9 11 12 14 17 18 19 23 30 31 41 48 46 45 46 49 44 48 53 47 46 44 41 40 41 40 38 36 33 30
27 23 23 22 19 16 16 15 14 12 13 12 11 12 15 20 8 12 15 24 19 24 22 29 33 39 38 40 46 53 48 48 54 61 65 68 56 50 45 44 43 41 39 36
30 26 25 25 20 15 17 16 13 15 11 11 12 11 12 17 18 19 21 26 29 32 27 27 25 29 36 42 46 52 58 55 58 58 52 60 75 69 59 52 50 46 42 42
32 28 27 28 22 20 18 21 18 14 15 16 13 16 14 12 15 16 13 14 22 24 24 28 33 36 41 45 45 46 49 49 48 60 62 63 57 69 76 71 64 58 56 48
36 34 31 29 25 28 30 32 19 22 19 15 15 13 13 11 12 10 10 14 11 12 7 15 20 29 32 34 37 41 44 51 51 50 53 60 66 67 63 62 80 89 67 55
35 35 33 33 28 29 25 25 21 19 17 20 17 13 14 13 13 14 13 12 8 4 1 9 14 15 14 27 36 44 39 44 51 44 41 50 59 63 61 60 52 71 75 67
Wind_Direction_850mb
292 258 280 281 208 219 226 252 265 237 270 163 174 160 156 155 157 156 133 171 184 184 184 181 192 200 215 214 227 246 229 224 221 229 211 215 206 206 212 216 222 212 225 227
282 185 267 275 247 248 216 234 254 269 244 79 101 130 139 142 154 170 150 162 171 170 172 186 192 205 206 215 220 231 241 240 235 234 220 214 209 199 189 203 208 210 213 218
267 255 202 251 252 231 249 242 239 253 44 177 139 144 140 140 164 162 159 174 179 171 172 190 189 189 196 206 199 222 223 213 207 214 207 195 186 178 174 177 180 204 208 215
278 2 267 95 37 329 286 1 353 353 276 69 97 122 136 145 159 158 147 138 170 189 195 180 189 187 184 186 185 186 184 194 197 206 199 197 192 166 156 156 166 190 216 228
289 191 350 333 63 356 317 19 358 297 15 79 98 118 108 140 152 160 145 148 175 180 179 183 170 174 168 165 174 184 192 197 185 194 199 205 215 215 195 214 219 227 241 226
244 298 196 204 299 323 299 168 335 358 45 103 164 179 139 147 135 129 134 147 167 177 181 185 178 182 183 191 195 199 205 208 213 209 212 204 193 191 196 197 203 215 232 232
277 308 84 172 169 307 261 26 7 345 104 137 241 352 133 142 132 136 154 154 151 159 164 172 176 187 197 206 193 186 188 174 173 176 170 167 171 191 207 208 208 213 212 218
188 94 302 7 84 12 345 329 359 338 117 138 114 134 127 134 136 150 145 140 140 145 134 127 132 154 152 154 151 155 169 166 162 153 141 155 164 186 194 191 196 193 172 168
340 56 76 41 71 51 12 20 359 328 75 125 162 150 148 141 143 136 132 127 129 131 128 118 115 113 116 123 127 140 145 143 148 152 146 137 144 136 146 131 116 144 152 164
301 138 115 54 67 43 31 24 13 6 82 146 161 153 152 146 139 137 136 129 127 126 124 123 128 129 139 160 164 175 158 160 146 144 138 109 112 127 138 158 171 170 181 194
260 147 149 152 67 30 38 34 36 55 80 128 161 158 161 150 151 149 145 141 134 124 120 124 127 133 147 154 145 151 157 157 153 152 149 176 173 177 187 186 168 177 175 200
304 67 126 105 127 26 46 48 54 78 112 111 154 160 155 160 153 147 146 144 134 122 111 109 111 118 126 143 145 147 145 146 156 161 146 153 191 208 198 198 206 217 228 249
304 184 249 142 206 206 76 99 78 94 128 135 145 162 166 152 146 137 135 131 136 134 120 116 107 117 131 142 135 139 146 166 163 156 172 162 148 156 178 180 189 197 196 194
226 225 237 225 227 217 216 191 145 140 142 147 155 184 193 170 153 153 148 152 149 128 121 98 136 134 134 149 151 137 141 159 146 174 179 177 170 168 153 137 134 161 169 164
213 223 269 158 236 245 249 225 210 198 172 156 168 170 156 159 166 169 164 154 154 169 195 213 201 197 185 178 162 153 137 145 160 176 191 187 177 171 172 173 168 179 169 163
208 214 224 229 238 237 246 237 234 220 187 181 171 173 172 178 180 181 182 177 185 192 185 215 206 208 205 196 195 187 181 185 168 208 221 189 182 182 192 189 185 182 175 182
211 218 230 239 237 234 235 242 237 232 202 193 191 180 188 182 189 192 194 197 198 200 208 206 215 219 211 207 199 194 202 210 208 200 208 208 193 201 210 207 200 196 219 218
220 257 261 254 251 240 237 231 232 228 222 214 196 195 190 197 203 202 197 195 197 204 209 209 209 216 211 204 197 192 197 203 201 202 219 215 203 208 209 213 212 206 221 245
212 222 217 220 224 222 210 216 207 201 200 204 202 204 206 205 202 204 199 196 202 204 209 210 211 210 209 207 198 197 209 212 217 211 217 220 216 211 219 219 219 218 219 239
197 191 191 188 183 180 171 172 157 159 172 187 196 203 207 214 213 201 198 205 208 217 215 213 224 216 218 222 213 209 216 216 219 221 219 221 223 221 221 224 221 226 230 236
191 185 183 180 174 171 179 181 183 180 182 192 211 210 223 232 224 220 216 219 222 226 217 223 224 211 211 217 233 230 214 229 229 227 226 229 226 228 228 227 232 230 229 236
195 192 189 183 175 176 177 181 181 180 196 210 229 239 237 233 233 239 235 236 248 236 221 228 232 229 228 239 229 233 235 233 228 232 230 229 235 232 232 230 231 231 233 235
200 200 198 198 200 192 197 209 209 220 226 233 238 244 250 258 264 257 250 252 231 236 237 244 245 239 241 241 230 234 238 238 235 234 237 236 228 234 239 238 235 232 232 235
202 202 204 204 204 213 212 218 229 216 228 231 240 243 261 266 259 252 250 259 264 257 246 236 249 244 242 246 247 241 239 239 240 238 234 234 230 238 230 234 236 232 234 236
204 205 204 209 208 220 225 212 219 223 220 232 236 270 276 257 245 251 252 251 280 278 268 267 266 263 258 250 249 251 258 254 250 249 247 243 241 239 240 233 231 237 229 244
205 210 216 214 221 226 214 200 221 219 214 230 236 260 257 244 251 265 260 256 271 289 322 293 280 272 268 259 259 258 257 255 258 254 252 252 250 252 255 253 243 237 250 241
212 218 219 204 216 224 214 211 213 205 230 253 254 250 241 240 241 252 255 255 197 186 353 18 17 355 295 260 253 249 255 254 256 257 252 252 248 255 258 253 252 247 227 236